Tracking 28920 objects as of 24-May-2024
HD Live streaming from Space Station
objects crossing your sky now

FLOCK 4X 25

Track FLOCK 4X 25 now!
10-day predictions


NORAD ID: 51016
Int'l Code: 2022-002AJ
Perigee: 419.5 km
Apogee: 427.4 km
Inclination: 97.4 °
Period: 92.9 minutes
Semi major axis: 6794 km
RCS: Unknown
Launch date: January 13, 2022
Source: United States (US)
Launch site: AIR FORCE EASTERN TEST RANGE (AFETR)
Your satellite tracking list
Your tracking list is empty




NASA's NSSDC Master Catalog

Two Line Element Set (TLE):
1 51016U 22002AJ  24145.15574340  .00062063  00000-0  10965-2 0  9994
2 51016  97.3826 221.4902 0005802 109.4845 250.7034 15.50128177131368
Source of the keplerian elements: AFSPC